2019-038E (44391 NORAD) Tracking and Keplerian Element Data

This shows tracking and keplerian element data for the satellite.

Feedback or suggestion? Click here.




ElementValue
Catalog44391
Name2019-038E
Epoch Orbit187
Epoch Day199.40413411
Epoch Year2019
RAAN161.2915
Inclination97.6827
Eccentricity0.0020213
Argument of Perigee189.3525
Mean Anonmoly170.7323
Mean Motion14.9655071
Decay Rate-4.24E-06
L11 44391U 19038E 19199.40413411 -.00000424 00000-0 -32025-4 0 9997
L22 44391 97.6827 161.2915 0020213 189.3525 170.7323 14.96550710 1875

Live tracking and technical data element details for 2019-038E (NORAD 44391). 2019-038E can be tracked NOW for your location showing map with azimuth and elevation plus other details from your city location.

Track the satellite on the map from your city or location and see movement details for azimuth, elevation, latitude, longitude, range, height, and movement on the map or in text.







IsCatalogInMostPopularTable: catalog: 44391, numindb: 4
Update: records affected: 1



GetName: 44391 2019-038E

Hit Count: updated at: Fri, 19 Jul 2019 07:55:56 GMT